Flag for Estonia Weather past 2 weeks in Tartu, Estonia

Now
68 °F

Sunny.


Feels Like: 68 °F
Forecast: 59 / 82 °F
Wind: 5 mph from Southwest

Location: Tartu/Ulenurme

Current Time: Aug 1, 2014 at 9:53:15 AM

Latest Report: Aug 1, 2014 at 8:50 AM


Visibility: 10 mi

Pressure: 29.92 "Hg

Humidity: 78%

Dew point: 61 °F

Location of TartuLocation

Historic Weather in Tartu — Graph

°F

Tartu temperature yesterday

Maximum temperature yesterday: 84 °F (at 12:50 PM)
Minimum temperature yesterday: 66 °F (at 3:50 AM)
Average temperature yesterday: 73 °F

Past Weeks' High & Low Weather Summary

 TemperatureHumidityPressure
High86 °F (Jul 26, 3:50 PM)94% (Jul 19, 6:50 AM)30.21 "Hg (Jul 19, 6:50 AM)
Low57 °F (Jul 21, 2:50 AM)33% (Jul 26, 3:50 PM)29.71 "Hg (Jul 31, 2:50 PM)
Average71 °F70%30.04 "Hg
* Reported Jul 17 7:50 AM — Aug 1 7:50 AM, Tartu, Weather by CustomWeather, © 2014

Note: Actual official high and low records may vary slightly from our data, if they occured in-between our weather recording intervals... More about our weather records

Advertising

Tartu weather history for previous 24 hours

 ConditionsComfort  
Time TempWeatherWind HumidityBarometerVisibility
7:50 AM
Aug 1
66 °FSunny.5 mph78%29.92 "Hg10 mi
6:50 AM64 °FSunny.7 mph88%29.89 "Hg10 mi
5:50 AM63 °FPassing clouds.6 mph94%29.89 "HgN/A
4:50 AM64 °FMild.5 mph88%29.86 "HgN/A
3:50 AM66 °FPassing clouds.7 mph88%29.86 "HgN/A
2:50 AM66 °FOvercast.7 mph94%29.86 "HgN/A
1:50 AM68 °FMostly cloudy.7 mph88%29.83 "HgN/A
12:50 AM66 °FLight rain. Mostly cloudy.7 mph94%29.83 "HgN/A
11:50 PM
Jul 31
68 °FPassing clouds.8 mph83%29.80 "HgN/A
10:50 PM68 °FPartly cloudy.8 mph88%29.80 "HgN/A
9:50 PM70 °FBroken clouds.8 mph83%29.80 "HgN/A
8:50 PM70 °FScattered clouds.8 mph78%29.77 "HgN/A
7:50 PM70 °FScattered clouds.8 mph78%29.77 "HgN/A
6:50 PM70 °FScattered clouds.8 mph78%29.77 "HgN/A
5:50 PM70 °FThundershowers. Broken clouds.7 mph83%29.80 "HgN/A
4:50 PM72 °FSprinkles. Broken clouds.24 mph78%29.77 "HgN/A
3:50 PM82 °FScattered clouds.22 mph45%29.71 "HgN/A
2:50 PM84 °FScattered clouds.20 mph43%29.71 "HgN/A
1:50 PM84 °FScattered clouds.21 mph43%29.74 "HgN/A
12:50 PM84 °FSunny.16 mph43%29.74 "Hg10 mi
11:50 AM82 °FSunny.14 mph45%29.74 "Hg10 mi
9:50 AM79 °FWarm.10 mph48%29.77 "HgN/A
Weather by CustomWeather, © 2014

See weather overviewHow to use our weather pages